Plymouth, NH

3:49 PM EDT on June 25, 2017 (GMT -0400)
Plymouth

Weather History for K1P1 - February, 2014

Change the Weather History Date:

Thursday, February 27, 2014

  Actual Average (KLCI) Record (KLCI)
Temperature  
Mean Temperature 10 °F -  
Max Temperature 22 °F 33 °F 53 °F (2009)
Min Temperature -1 °F 13 °F -9 °F (1993)
Degree Days  
Heating Degree Days 54    
Moisture  
Dew Point -3 °F    
Average Humidity 56    
Maximum Humidity 85    
Minimum Humidity 29    
Precipitation  
Precipitation 0.00 in - - ()
Sea Level Pressure  
Sea Level Pressure 29.68 in    
Wind  
Wind Speed 3 mph (WSW)    
Max Wind Speed 18 mph    
Max Gust Speed 28 mph    
Visibility 10 miles    
Events Snow    
Averages and records for this station are not official NWS values.
T = Trace of Precipitation, MM = Missing Value Source: NWS Daily Summary

Daily Weather History Graph

Daily Weather History Graph

Search for Another Location

Airport or City:

Trip Planner

Search our weather history database for the weather conditions in past years. The results will help you decide how hot, cold, wet, or windy it might be!

Date:

Astronomy

Feb. 27, 2014 Rise Set
Actual Time 6:27 AM EST 5:32 PM EST
Civil Twilight 5:58 AM EST 6:01 PM EST
Nautical Twilight 5:24 AM EST 6:35 PM EST
Astronomical Twilight 4:51 AM EST 7:08 PM EST
Moon 4:59 AM EST (2/27) 3:53 PM EST (2/27)
Length of Visible Light 12h 03m
Length of Day
11h 05m
Waning Crescent, 4% of the Moon is Illuminated
Feb 27
Waning Crescent
Mar 1
New
Mar 8
First Quarter
Mar 16
Full
Mar 23
Last Quarter

Hourly Weather History & Observations

Time (EST) Temp. Windchill Dew Point Humidity Pressure Visibility Wind Dir Wind Speed Gust Speed Precip Events Conditions
12:15 AM -1.7 °F - -5.3 °F 85% 29.81 in 10.0 mi Calm Calm - N/A   Unknown
12:35 AM -1.3 °F - -5.8 °F 81% 29.81 in 10.0 mi Calm Calm - N/A   Unknown
12:55 AM -1.3 °F - -5.3 °F 83% 29.81 in 10.0 mi Calm Calm - N/A   Unknown
1:15 AM -0.4 °F - -4.5 °F 83% 29.81 in 10.0 mi Calm Calm - N/A   Unknown
1:35 AM -0.0 °F - -4.5 °F 81% 29.81 in 10.0 mi Calm Calm - N/A   Unknown
1:55 AM 1.6 °F - -3.8 °F 78% 29.81 in 10.0 mi Calm Calm - N/A   Unknown
2:15 AM 1.0 °F - -4.2 °F 79% 29.81 in 10.0 mi Calm Calm - N/A   Unknown
2:35 AM 1.0 °F - -4.0 °F 79% 29.81 in 10.0 mi Calm Calm - N/A   Unknown
2:55 AM 1.4 °F - -4.2 °F 77% 29.80 in 10.0 mi Calm Calm - N/A   Unknown
3:15 AM 1.2 °F - -4.0 °F 79% 29.80 in 10.0 mi Calm Calm - N/A   Unknown
3:35 AM 1.6 °F - -3.6 °F 79% 29.80 in 10.0 mi Calm Calm - N/A   Unknown
3:55 AM 1.6 °F - -4.0 °F 77% 29.79 in 10.0 mi Calm Calm - N/A   Unknown
4:15 AM 1.9 °F - -4.0 °F 76% 29.78 in 10.0 mi Calm Calm - N/A   Unknown
4:35 AM 1.9 °F - -3.3 °F 79% 29.77 in 10.0 mi Calm Calm - N/A   Unknown
4:55 AM 1.9 °F - -3.1 °F 79% 29.76 in 10.0 mi Calm Calm - N/A   Unknown
5:15 AM 1.4 °F - -3.6 °F 79% 29.75 in 10.0 mi Calm Calm - N/A   Unknown
5:35 AM 1.2 °F - -3.6 °F 80% 29.75 in 10.0 mi Calm Calm - N/A   Unknown
5:55 AM 1.4 °F - -3.6 °F 79% 29.74 in 10.0 mi Calm Calm - N/A   Unknown
6:15 AM 1.4 °F - -3.3 °F 81% 29.73 in 10.0 mi Calm Calm - N/A   Unknown
6:35 AM 1.4 °F - -3.3 °F 81% 29.71 in 10.0 mi Calm Calm - N/A   Unknown
6:55 AM 1.4 °F - -3.3 °F 81% 29.71 in 10.0 mi Calm Calm - N/A   Unknown
7:15 AM 1.9 °F - -3.1 °F 79% 29.71 in 10.0 mi Calm Calm - N/A   Unknown
7:35 AM 2.7 °F - -2.6 °F 79% 29.71 in 10.0 mi Calm Calm - N/A   Unknown
7:55 AM 3.7 °F - -2.2 °F 76% 29.70 in 10.0 mi Calm Calm - N/A   Unknown
8:15 AM 5.2 °F - -2.2 °F 72% 29.69 in 10.0 mi Calm Calm - N/A   Unknown
8:35 AM 7.2 °F - -2.4 °F 65% 29.69 in 10.0 mi Calm Calm - N/A   Unknown
8:55 AM 8.1 °F - -2.9 °F 61% 29.69 in 10.0 mi Calm Calm - N/A   Unknown
9:15 AM 10.0 °F - -2.2 °F 58% 29.69 in 10.0 mi Calm Calm - N/A   Unknown
9:35 AM 12.4 °F 6.3 °F -2.4 °F 52% 29.68 in 10.0 mi ENE 3.5 mph - N/A   Unknown
9:55 AM 13.8 °F 6.2 °F -2.2 °F 49% 29.67 in 10.0 mi East 4.6 mph - N/A   Unknown
10:15 AM 15.4 °F 9.8 °F -3.5 °F 43% 29.66 in 10.0 mi East 3.5 mph - N/A   Unknown
10:35 AM 16.9 °F 11.5 °F -5.4 °F 37% 29.65 in 10.0 mi South 3.5 mph - N/A   Unknown
10:55 AM 18.1 °F 8.9 °F -9.6 °F 29% 29.64 in 10.0 mi South 6.9 mph - N/A   Unknown
11:15 AM 18.1 °F 11.3 °F -7.2 °F 32% 29.62 in 10.0 mi SSE 4.6 mph - N/A   Unknown
11:35 AM 18.3 °F 10.2 °F -6.7 °F 33% 29.61 in 10.0 mi SSE 5.8 mph - N/A   Unknown
11:55 AM 18.1 °F 6.3 °F -3.3 °F 39% 29.60 in 10.0 mi SSE 10.4 mph 17.3 mph N/A   Unknown
12:15 PM 19.4 °F 9.5 °F -2.9 °F 37% 29.58 in 10.0 mi SSE 8.1 mph - N/A   Unknown
12:35 PM 20.1 °F 13.6 °F -4.9 °F 33% 29.57 in 10.0 mi South 4.6 mph - N/A   Unknown
12:55 PM 20.3 °F 12.5 °F -4.5 °F 33% 29.56 in 10.0 mi SSE 5.8 mph - N/A   Unknown
1:15 PM 21.0 °F - -3.1 °F 35% 29.55 in 10.0 mi Calm Calm - N/A   Unknown
1:35 PM 21.6 °F - -2.7 °F 34% 29.54 in 10.0 mi Calm Calm - N/A   Unknown
1:55 PM 21.6 °F 9.3 °F 3.0 °F 45% 29.55 in 7.0 mi West 12.7 mph 23.0 mph N/A Snow Light Snow
2:15 PM 22.1 °F 10.6 °F 1.4 °F 41% 29.55 in 10.0 mi SSW 11.5 mph 17.3 mph N/A   Unknown
2:35 PM 22.3 °F 9.2 °F 0.9 °F 39% 29.55 in 10.0 mi West 15.0 mph 19.6 mph N/A   Unknown
2:55 PM 22.1 °F 11.3 °F 1.2 °F 40% 29.56 in 10.0 mi WSW 10.4 mph 16.1 mph N/A   Unknown
3:15 PM 22.3 °F 10.2 °F 2.3 °F 42% 29.57 in 10.0 mi WSW 12.7 mph 16.1 mph N/A   Unknown
3:35 PM 22.1 °F 13.7 °F 0.5 °F 39% 29.57 in 10.0 mi SW 6.9 mph - N/A   Unknown
3:55 PM 22.3 °F 12.2 °F -0.9 °F 36% 29.57 in 10.0 mi WSW 9.2 mph 16.1 mph N/A   Unknown
4:15 PM 22.6 °F 14.3 °F -2.4 °F 34% 29.58 in 10.0 mi West 6.9 mph - N/A   Unknown
4:35 PM 22.3 °F 16.1 °F -1.8 °F 35% 29.58 in 10.0 mi West 4.6 mph 16.1 mph N/A   Unknown
4:55 PM 21.6 °F 16.8 °F -1.8 °F 36% 29.58 in 10.0 mi WSW 3.5 mph - N/A   Unknown
5:15 PM 21.2 °F 13.6 °F -1.5 °F 37% 29.58 in 10.0 mi SSW 5.8 mph - N/A   Unknown
5:35 PM 21.0 °F 13.4 °F -0.9 °F 38% 29.58 in 10.0 mi SW 5.8 mph - N/A   Unknown
5:55 PM 21.0 °F 14.6 °F 0.5 °F 41% 29.59 in 10.0 mi West 4.6 mph - N/A   Unknown
6:15 PM 21.2 °F 14.9 °F 0.5 °F 41% 29.59 in 10.0 mi South 4.6 mph - N/A   Unknown
6:35 PM 21.0 °F 16.2 °F 1.6 °F 43% 29.61 in 10.0 mi WSW 3.5 mph - N/A   Unknown
6:55 PM 20.8 °F 16.0 °F 1.8 °F 44% 29.61 in 10.0 mi SW 3.5 mph - N/A   Unknown
7:15 PM 20.8 °F 13.2 °F 2.8 °F 46% 29.63 in 10.0 mi SW 5.8 mph - N/A   Unknown
7:35 PM 19.2 °F 14.1 °F 10.6 °F 69% 29.63 in 4.0 mi West 3.5 mph - N/A Snow Light Snow
7:55 PM 18.1 °F - 11.3 °F 75% 29.63 in 10.0 mi Calm Calm - N/A   Unknown
8:15 PM 18.7 °F 7.0 °F 11.5 °F 74% 29.66 in 1.8 mi WSW 10.4 mph 19.6 mph N/A Snow Light Snow
8:35 PM 17.2 °F 3.9 °F 9.5 °F 72% 29.68 in 2.5 mi WNW 12.7 mph 24.2 mph N/A Snow Light Snow
8:55 PM 17.4 °F 5.4 °F 4.6 °F 57% 29.69 in 10.0 mi West 10.4 mph 16.1 mph N/A   Unknown
9:15 PM 17.1 °F 3.6 °F 1.9 °F 52% 29.70 in 10.0 mi West 12.7 mph 19.6 mph N/A   Unknown
9:35 PM 16.7 °F 3.8 °F -1.3 °F 45% 29.72 in 10.0 mi West 11.5 mph 24.2 mph N/A   Unknown
9:55 PM 16.3 °F 0.5 °F -1.7 °F 45% 29.74 in 10.0 mi West 17.3 mph 27.6 mph N/A   Unknown
10:15 PM 15.3 °F -1.3 °F -8.7 °F 34% 29.76 in 7.0 mi West 18.4 mph 27.6 mph N/A   Unknown
10:35 PM 14.4 °F 0.9 °F -10.3 °F 33% 29.77 in 7.0 mi West 11.5 mph 21.9 mph N/A   Unknown
10:55 PM 13.8 °F 1.0 °F -12.1 °F 31% 29.79 in 10.0 mi West 10.4 mph 24.2 mph N/A   Unknown
11:15 PM 13.1 °F -3.1 °F -13.9 °F 29% 29.81 in 10.0 mi West 16.1 mph 26.5 mph N/A   Unknown
11:35 PM 12.2 °F -3.7 °F -14.1 °F 30% 29.82 in 10.0 mi West 15.0 mph 25.3 mph N/A   Unknown
11:55 PM 11.3 °F -2.2 °F -14.4 °F 31% 29.83 in 10.0 mi WNW 10.4 mph 20.7 mph N/A   Unknown